Location: Unspecified
(44.0704°N, 88.6889°W)
Time: 04:04:16
(UTC+02:00)

Okean 3 - Pass Details

Date: 04 October 2020
Orbit: 575 x 602 km, 82.5° (Epoch: 20 October)

Event Time Altitude Azimuth Distance (km) Brightness Sun altitude
Exits shadow 12:22:33 - 191° (S) 2,354 6.3 -17.7°
Reaches altitude 10° 12:23:36 10° 192° (SSW) 1,931 5.9 -17.5°
Maximum altitude 12:27:52 78° 279° (W) 614 3.3 -16.7°
Drops below altitude 10° 12:32:09 10° 6° (N) 1,932 6.3 -16.0°
Sets 12:34:21 0° 8° (N) 2,833 7.2 -15.6°
